Wind_Speed
36 38 37 33 31 32 34 34 37 37 35 34 35 36 35 34 33 33 36 35 36 40 38 36 35 33 35 35 32 32 34 33 33 33 32 31 30 29 28 26 25 24 23 22 22 21 21 21 21 22 23 24 25 25 26 26 27 28 28 29 29 30 30 31 32 32 33 33 34 35 36 36 37 38 39 40 41 42 43 43 44 45 46 47 48 49
39 41 37 32 33 35 36 36 37 37 35 35 36 36 37 36 35 35 37 37 38 41 40 37 36 34 36 36 34 34 34 33 33 33 33 32 30 29 27 26 25 24 23 23 22 22 21 21 22 22 23 24 25 26 26 27 28 28 29 30 30 30 31 31 32 33 33 34 35 36 37 38 39 40 41 42 43 44 45 46 47 48 48 49 50 51
40 41 37 36 36 37 38 39 38 38 37 38 38 39 39 38 37 39 40 40 40 42 41 40 37 36 37 36 35 35 33 32 33 33 33 32 30 28 27 26 25 25 24 24 23 23 23 22 22 23 24 24 25 26 27 28 28 29 30 30 31 32 33 33 34 35 36 37 38 39 40 41 42 43 44 45 46 47 48 48 49 50 50 51 52 52
41 41 39 40 40 39 41 41 40 40 41 40 40 41 41 40 40 42 44 42 41 42 43 42 40 38 37 36 35 35 33 31 32 32 31 30 29 28 27 26 26 25 25 25 24 24 24 24 25 25 26 27 27 28 29 29 30 31 31 32 33 34 35 36 37 38 39 40 41 42 43 44 45 46 47 47 48 48 49 50 50 51 51 52 53 53
43 43 42 41 43 42 43 43 42 43 43 43 43 43 42 41 42 44 46 45 43 43 43 43 43 40 37 36 35 34 33 31 30 30 30 29 28 28 27 27 27 26 26 26 26 26 26 27 28 28 29 29 30 30 31 31 32 32 33 34 35 36 37 38 39 40 41 42 43 43 44 45 46 47 47 48 48 49 49 50 50 51 52 52 53 54
43 46 44 42 43 44 45 46 45 45 45 46 46 45 42 43 45 45 46 45 45 45 42 41 44 42 38 36 35 33 32 31 30 29 28 28 28 28 28 28 28 27 28 28 28 28 28 29 30 30 30 30 31 31 32 33 33 33 34 34 35 36 37 38 39 40 41 42 42 43 43 44 45 46 47 48 49 49 50 50 51 51 52 53 53 54
45 47 45 43 44 46 47 49 47 46 46 48 49 46 42 44 47 47 46 45 46 46 42 40 43 44 40 36 33 33 32 31 30 28 27 28 28 29 29 29 29 29 30 30 30 30 31 31 31 31 31 32 33 33 34 33 33 33 33 34 34 35 36 37 38 39 40 40 41 42 42 43 44 45 46 48 49 49 50 50 51 51 52 53 54 54
47 47 47 46 46 47 49 50 48 46 46 50 50 46 45 46 48 48 47 45 46 46 44 42 41 42 41 36 32 33 33 31 30 28 28 29 29 29 29 29 30 31 31 32 32 33 33 33 33 33 34 34 35 35 35 34 34 34 34 35 35 36 37 37 37 38 38 39 40 40 41 42 44 45 46 47 48 49 49 50 51 51 52 53 53 54
50 49 49 48 48 49 49 49 47 46 47 50 49 47 47 47 46 45 46 46 45 46 46 44 40 40 41 37 33 33 33 31 30 30 30 30 29 29 29 30 31 32 33 33 34 35 35 35 35 36 37 37 36 36 35 35 35 35 35 36 36 37 37 38 38 38 38 39 40 40 41 42 43 44 45 46 47 48 49 50 50 51 52 53 54 55
51 50 49 48 49 49 48 47 46 47 48 49 48 48 48 46 44 44 44 45 45 46 46 43 38 38 39 38 34 33 32 31 31 31 31 30 30 30 30 31 32 33 34 35 36 36 37 38 39 39 38 38 37 37 37 37 37 37 37 38 38 38 38 39 39 39 40 40 40 41 42 43 44 45 46 47 48 49 49 50 51 52 53 54 55 56
50 49 47 48 48 48 47 46 46 47 47 48 47 47 46 45 43 43 44 44 45 46 44 40 36 35 39 40 36 30 29 32 32 32 31 30 30 30 30 31 32 34 35 36 37 38 39 40 40 40 40 39 39 39 40 39 40 40 40 40 40 39 39 40 40 40 41 42 42 43 44 44 45 46 47 48 49 50 51 52 53 54 55 56 57 58
48 47 46 45 45 46 46 46 46 46 46 46 45 44 43 42 41 42 43 43 45 44 40 36 33 34 39 41 37 30 28 31 32 31 30 30 30 30 31 32 34 35 37 38 39 40 40 41 42 42 42 41 41 42 42 42 42 41 41 40 40 40 40 41 41 42 43 44 44 45 46 46 47 48 49 50 51 52 53 55 55 56 58 59 60 61
46 46 46 44 44 43 44 44 44 43 42 42 41 41 39 39 40 41 41 41 40 38 36 32 31 35 38 38 37 32 28 28 30 30 30 30 30 31 32 34 35 37 38 39 40 41 42 43 43 43 43 43 43 43 43 42 42 42 41 41 41 41 41 42 43 44 45 46 47 47 48 48 49 50 51 53 54 55 56 57 58 59 60 61 62 63
45 45 43 42 40 39 39 40 40 39 39 38 39 39 37 38 41 41 38 36 35 33 33 31 32 36 37 35 34 33 30 29 29 30 31 31 32 33 35 36 38 39 40 41 42 43 43 43 43 43 44 44 45 44 43 43 42 42 42 42 42 42 43 44 45 46 47 48 49 50 51 52 53 53 54 55 56 57 58 59 60 61 62 63 64 65
44 44 41 38 36 34 35 36 37 37 37 38 39 40 39 39 40 37 33 32 32 31 31 31 33 35 34 31 31 32 33 33 32 32 32 33 34 36 37 39 40 41 42 42 43 43 43 43 44 45 45 46 47 46 46 45 44 43 43 43 44 45 46 46 47 48 50 51 52 53 54 55 56 57 57 58 59 60 60 61 62 63 64 65 66 67
43 43 40 36 35 34 34 34 36 36 37 38 39 40 39 36 34 32 30 31 32 33 33 33 34 35 33 32 32 35 37 37 37 38 38 37 37 38 39 40 41 42 42 42 42 43 43 44 45 46 47 48 48 48 47 47 46 45 45 46 47 48 49 49 50 51 52 54 55 56 57 58 58 59 60 60 61 62 62 63 64 65 66 66 67 68
44 43 41 38 36 36 35 35 36 36 37 39 39 39 35 30 30 31 32 33 35 36 36 35 36 36 36 36 37 38 39 39 41 41 40 39 38 38 40 41 42 42 43 43 44 44 45 46 47 48 49 49 49 49 48 47 46 46 47 48 50 51 52 52 53 54 56 57 58 58 59 60 60 61 62 62 63 63 64 65 66 67 67 68 69 69
45 44 42 39 38 37 35 36 37 37 40 40 39 36 32 30 33 34 35 37 38 38 39 39 39 39 38 39 40 41 42 42 42 41 39 37 38 40 41 42 43 44 44 45 46 47 47 48 49 49 50 51 50 49 48 47 47 47 49 50 52 53 54 55 56 57 58 59 60 61 61 62 63 63 64 65 65 66 67 68 69 69 69 70 70 71
45 45 44 41 39 38 36 38 39 40 41 40 37 35 35 36 37 37 38 40 40 41 42 43 44 41 40 42 42 43 44 45 45 42 38 38 40 42 43 44 45 45 46 47 48 49 49 49 50 51 52 51 50 48 48 48 48 49 51 52 53 55 56 57 59 60 60 61 62 63 63 64 65 65 66 67 67 68 69 70 70 70 71 71 71 71
47 47 48 44 40 39 39 40 41 41 39 38 37 36 37 39 40 40 41 41 43 45 46 47 47 43 42 44 44 44 46 47 47 43 39 40 43 45 46 46 46 47 48 49 50 50 51 51 52 52 52 51 49 49 49 49 50 52 53 54 55 57 58 60 60 61 62 63 63 64 65 65 66 67 68 68 69 70 70 70 71 71 71 71 72 72
50 49 49 47 43 41 41 41 40 39 38 38 38 39 39 40 41 43 44 44 45 48 49 50 49 46 46 47 45 45 47 48 46 42 40 42 45 46 47 47 48 49 50 51 51 51 52 53 54 53 52 51 50 50 50 51 53 54 55 56 58 59 60 61 62 63 64 64 65 65 66 67 68 69 69 70 70 71 71 71 71 72 72 72 72 72
49 49 49 50 48 44 43 42 40 40 41 41 41 42 43 43 44 46 47 47 49 51 52 52 50 49 50 49 47 48 49 48 45 42 42 45 46 47 47 48 49 51 51 51 52 53 54 55 55 54 52 51 51 51 52 53 54 56 57 58 60 61 62 63 64 65 65 65 66 67 67 68 69 70 71 71 71 72 72 72 72 72 72 73 72 72
47 50 51 53 52 48 46 45 44 44 45 45 46 48 48 48 47 48 49 50 52 53 53 53 52 52 53 53 52 52 51 49 46 44 45 47 48 49 49 50 52 52 52 53 55 56 57 56 55 54 52 52 52 53 54 55 56 57 59 60 62 63 64 65 65 65 65 66 67 68 69 70 71 71 72 72 72 72 71 71 71 72 72 71 71 70
49 52 53 54 54 51 49 48 48 48 50 51 52 52 52 50 48 49 51 53 54 53 53 54 55 55 55 55 55 53 51 50 47 46 47 49 50 51 52 54 54 54 55 56 58 58 58 57 56 54 53 53 54 54 55 56 57 59 61 62 64 65 65 65 65 65 66 67 68 69 70 71 72 72 72 72 71 70 70 70 71 70 70 69 69 68
51 51 52 53 53 53 52 51 51 51 52 52 51 51 51 49 49 52 54 55 56 53 52 54 56 57 57 57 56 54 52 50 48 49 52 53 53 55 56 57 57 57 58 59 59 59 59 57 56 55 54 54 55 55 56 58 59 61 62 64 64 64 65 65 65 66 67 68 69 70 71 72 72 72 72 71 70 69 69 69 69 68 67 67 67 67
54 54 55 55 55 55 54 53 52 51 50 50 49 49 50 50 52 53 54 55 56 54 53 56 58 59 59 57 55 54 53 52 52 53 56 57 58 59 60 60 60 60 60 60 61 60 59 57 56 56 55 55 56 57 59 60 61 62 63 63 64 64 65 66 66 67 68 69 70 70 71 72 72 71 71 70 69 69 69 69 68 67 67 67 67 68
56 57 59 59 59 58 56 55 54 54 53 52 52 52 53 54 55 55 55 58 59 59 58 59 60 60 58 55 54 54 56 58 56 57 59 60 61 62 61 61 61 61 61 61 61 60 58 57 56 56 56 57 59 60 61 62 63 63 64 63 64 65 66 67 68 68 69 70 70 70 71 72 72 71 71 70 69 69 69 68 67 67 68 68 69 70
57 58 58 57 58 57 57 56 55 56 56 56 56 57 58 58 58 60 62 62 63 64 62 58 59 59 55 55 55 56 58 59 57 57 59 61 62 62 62 62 61 62 62 62 60 59 57 57 57 57 58 60 62 63 63 63 63 63 64 64 65 66 67 68 69 69 70 70 70 71 71 71 72 71 70 69 68 68 68 68 68 68 69 69 70 71
57 58 56 55 57 58 57 57 56 56 56 57 58 59 60 61 62 63 64 63 65 67 62 57 59 58 55 56 58 57 57 57 57 59 61 61 62 62 62 62 62 62 62 61 60 59 58 58 58 60 62 63 63 64 63 63 63 63 64 66 67 68 69 70 69 69 70 70 70 71 70 70 71 70 69 68 67 68 68 69 69 69 70 70 71 72
55 56 55 55 58 59 59 59 58 58 59 58 58 58 58 60 62 62 62 62 65 66 59 57 60 57 55 60 62 58 57 57 59 61 61 62 62 62 62 62 63 63 62 62 61 60 60 60 61 62 64 64 64 63 62 63 63 64 66 67 68 69 70 70 69 70 70 70 70 70 69 69 69 69 68 67 67 68 69 70 70 71 71 72 74 75
53 53 52 54 56 57 57 57 58 59 59 58 57 55 55 57 60 60 59 60 62 60 56 59 63 59 58 61 61 58 58 59 60 60 60 62 62 62 63 64 63 63 62 61 61 60 60 61 62 63 63 63 63 63 63 64 65 67 68 69 69 69 70 69 70 70 70 70 69 68 68 68 68 68 67 67 68 69 70 71 71 73 74 75 76 77
51 52 52 53 55 55 54 54 55 54 54 55 55 53 55 58 59 58 57 57 59 59 59 64 66 61 58 58 59 60 61 60 60 61 61 62 62 63 64 63 62 60 60 60 60 61 62 62 63 63 62 62 63 64 65 66 67 68 69 68 69 69 70 70 69 69 69 69 68 67 67 67 67 67 67 68 70 71 72 72 73 74 75 76 77 78
49 51 52 53 55 55 54 53 51 51 53 55 53 51 55 58 57 57 58 58 60 62 64 66 63 58 57 59 61 63 62 60 60 61 61 61 62 63 62 60 59 59 60 61 61 62 63 63 63 63 63 63 64 65 66 67 68 68 68 68 69 70 70 69 69 68 68 67 66 66 66 66 66 67 68 69 71 72 73 74 75 75 76 76 77 77
51 52 53 54 55 56 55 53 51 53 56 55 51 50 54 58 58 59 59 58 60 62 63 62 60 59 61 62 62 63 62 61 61 60 59 60 61 60 59 58 59 60 62 63 63 63 63 63 63 64 64 65 65 66 66 67 67 67 68 69 69 69 69 68 67 66 65 64 64 64 65 65 66 67 69 71 72 73 74 75 75 75 75 74 74 73
59 59 59 59 60 59 58 55 54 57 57 53 50 50 53 57 59 60 60 59 59 61 61 62 61 62 63 64 63 64 63 62 61 59 59 59 58 57 58 59 61 62 63 63 63 64 64 64 64 64 64 64 65 65 66 66 67 68 68 69 68 67 66 65 65 64 64 63 63 63 64 65 67 69 71 72 73 73 74 74 73 72 71 70 69 70
63 62 61 62 62 62 61 60 60 60 57 53 51 52 54 57 60 61 61 58 58 60 63 63 63 62 63 63 63 63 62 61 60 59 58 58 58 58 60 62 63 63 63 64 64 65 65 64 64 64 64 64 65 65 66 67 67 68 67 67 66 65 64 64 64 64 63 62 63 64 65 67 68 70 71 72 72 72 71 69 68 66 66 66 67 67
63 60 59 59 59 59 60 60 59 59 58 55 55 55 56 58 59 60 62 61 60 63 64 63 63 62 61 61 60 59 59 60 60 59 58 58 60 61 63 64 64 63 64 65 65 65 64 64 63 64 64 64 65 66 66 67 67 66 65 64 63 63 63 63 63 63 62 63 64 65 67 68 69 70 70 70 68 67 65 64 63 63 63 64 64 65
61 60 58 57 57 57 57 58 58 60 59 55 54 56 58 60 61 62 64 64 63 64 63 61 60 59 59 59 59 58 59 61 61 59 58 60 63 64 65 64 63 64 64 64 63 63 63 63 63 64 64 64 65 65 65 65 64 63 63 62 62 62 63 63 63 63 63 64 65 67 68 68 68 67 66 64 63 61 61 60 60 60 61 62 62 61
59 59 57 57 58 58 59 61 62 62 59 54 54 58 61 62 62 63 66 67 64 62 61 58 56 56 57 58 59 60 62 63 63 61 61 63 65 66 65 64 63 63 63 62 62 62 62 62 62 63 63 63 64 63 62 62 61 61 61 61 62 63 63 64 64 64 65 66 66 67 67 65 63 61 60 58 58 58 58 58 58 59 59 59 59 58
58 58 58 58 59 59 61 63 64 63 60 56 57 61 63 63 62 61 64 65 62 60 58 57 56 57 59 61 63 63 64 65 65 65 66 67 67 66 64 63 62 62 61 61 61 60 61 61 61 61 61 61 61 60 60 60 60 61 61 62 63 64 64 64 64 65 66 65 64 63 61 58 57 56 55 56 56 56 56 56 57 57 58 57 56 56
58 59 59 59 59 60 62 64 65 64 61 58 61 62 62 62 62 62 63 63 61 60 61 62 62 63 64 65 66 67 67 69 69 70 70 69 67 66 64 62 61 60 60 59 59 59 59 59 59 59 59 59 59 59 59 60 61 62 63 64 64 64 64 64 65 64 63 61 59 56 54 53 53 53 54 55 55 56 56 56 56 56 56 55 54 54
58 58 59 59 59 61 62 63 66 65 61 59 61 61 59 60 63 64 65 64 63 63 65 67 67 68 69 69 70 71 72 72 72 70 68 67 65 64 62 61 60 59 58 58 58 57 57 58 58 58 58 58 59 60 61 62 63 63 64 65 65 64 64 64 63 61 58 56 53 51 51 51 52 53 54 55 55 56 55 55 55 55 55 54 52 52
57 57 58 58 58 60 61 62 64 64 59 56 58 60 59 62 66 66 66 67 68 68 69 70 71 72 73 73 74 74 74 72 70 68 66 65 63 61 60 58 58 57 57 57 56 56 56 57 57 58 58 59 61 62 63 64 64 65 66 65 64 63 63 62 59 56 54 52 50 50 51 52 53 54 55 56 56 55 54 54 54 54 53 52 51 50
58 58 59 58 58 59 61 62 63 62 59 58 61 63 64 66 69 70 70 70 71 71 71 72 73 74 74 74 73 73 72 70 69 67 65 63 61 58 57 56 55 55 55 55 56 57 57 58 59 60 61 62 63 64 65 66 66 67 66 64 62 62 60 57 54 52 50 50 50 50 51 53 54 55 55 55 55 54 54 54 53 53 52 51 50 49
60 60 61 61 62 64 65 65 65 65 64 64 66 66 67 68 69 70 70 69 70 70 71 72 73 74 74 73 71 70 69 67 66 65 64 61 59 56 55 54 54 54 55 56 57 58 59 60 62 63 64 65 65 66 67 67 67 66 63 61 59 58 55 53 51 50 50 50 50 51 52 54 55 55 55 55 55 54 54 53 52 52 52 51 50 49
65 65 66 67 67 68 68 68 68 68 67 66 66 66 66 66 66 66 67 67 67 68 70 72 73 73 72 71 69 67 66 64 62 61 60 59 58 57 56 55 55 56 57 58 59 60 62 63 64 65 66 67 67 67 67 66 64 61 58 56 55 53 51 50 51 51 51 51 51 52 53 54 54 54 54 55 55 55 54 53 52 52 52 52 52 51
66 65 66 67 67 67 68 68 67 67 65 64 64 64 64 63 63 63 63 65 66 68 70 70 70 68 66 65 64 63 62 61 60 59 59 59 58 58 57 57 58 58 59 60 62 63 64 65 66 66 67 66 65 64 63 61 58 55 53 52 51 50 50 51 51 51 51 52 52 53 54 54 54 54 54 55 55 55 55 54 53 53 53 53 53 53
63 62 64 65 66 66 67 67 65 64 62 61 60 60 59 59 60 61 63 65 67 68 67 66 63 61 60 60 60 60 60 59 59 59 59 59 58 58 59 59 59 60 61 62 63 63 64 64 64 64 63 62 60 58 57 55 53 51 50 50 50 51 51 51 51 52 52 53 53 53 54 54 54 54 54 55 56 56 56 55 55 54 54 54 54 54
63 63 64 65 65 65 65 63 61 59 58 57 57 58 58 60 62 64 65 65 64 62 61 60 59 58 59 59 60 60 59 59 59 59 59 59 58 58 58 58 58 59 60 61 61 62 62 62 61 59 57 55 53 52 52 51 50 50 51 51 51 51 52 52 52 53 54 54 54 54 55 55 55 55 56 56 57 57 57 57 57 57 57 56 56 55
63 64 64 63 62 61 60 58 57 57 58 59 60 60 61 62 62 63 62 60 58 57 57 58 58 59 59 59 59 59 58 58 58 58 58 57 57 56 57 57 57 58 59 60 61 61 60 58 56 54 52 50 49 49 49 49 50 50 51 51 51 51 51 52 53 54 55 55 55 55 56 56 57 57 58 58 58 59 59 59 60 60 60 59 58 57
60 60 61 60 59 59 59 57 56 57 58 59 59 60 60 60 60 60 59 58 57 58 59 60 60 60 59 58 58 58 58 57 57 57 57 56 56 56 57 58 58 58 59 59 59 58 56 53 51 50 49 49 49 50 50 50 50 50 50 50 50 51 52 53 54 55 56 56 56 56 57 58 58 58 59 60 60 60 60 61 62 62 62 61 60 58
Wind_Direction
274 272 272 277 281 277 273 272 272 274 276 277 277 278 278 277 278 277 275 273 273 272 271 272 273 274 275 274 274 275 275 274 270 268 268 267 267 267 267 266 262 259 257 257 258 260 262 265 269 274 278 281 282 282 282 282 282 282 282 282 281 281 280 280 280 280 280 280 279 279 279 279 279 279 279 280 280 280 280 280 280 280 280 281 281 281
274 273 275 280 277 274 273 271 272 274 275 275 276 277 278 278 279 278 275 273 271 271 272 272 273 274 274 274 273 274 276 274 270 268 268 267 266 266 264 262 259 257 256 257 258 260 263 269 275 281 285 287 288 288 288 288 287 286 286 285 284 284 284 283 283 283 282 282 281 281 281 281 281 281 281 281 281 281 281 282 282 282 282 282 282 283
276 276 276 274 271 270 270 270 272 274 274 274 276 277 277 279 279 277 275 273 272 272 273 273 273 273 273 274 275 275 275 273 270 268 267 266 265 264 261 258 256 255 255 257 257 260 267 273 280 285 289 291 291 290 290 290 289 289 288 287 286 285 285 285 285 285 284 284 284 283 283 283 283 283 283 283 283 283 283 283 283 283 283 283 283 283
279 278 275 270 268 267 268 270 272 273 273 275 276 276 277 279 279 278 275 273 273 273 273 273 273 272 272 274 275 274 273 271 268 267 265 264 262 260 257 255 254 254 254 255 257 262 268 274 280 285 288 290 289 289 289 289 289 289 289 288 287 287 286 285 285 284 284 283 283 283 283 283 283 283 283 283 283 283 283 283 283 283 283 284 284 284
278 277 274 271 268 267 268 269 270 271 273 274 275 276 278 280 278 276 275 275 275 273 273 274 273 271 272 275 275 273 272 269 266 265 263 261 259 256 255 254 254 254 253 254 257 263 269 276 281 285 287 288 289 289 289 289 289 289 289 289 288 288 286 285 284 284 283 283 283 283 284 284 284 284 284 284 283 283 282 282 283 283 284 284 284 285
276 274 273 273 269 266 266 267 268 269 272 274 274 275 277 278 277 275 275 276 276 274 274 275 274 272 271 273 274 272 270 267 264 262 259 257 255 254 254 254 254 253 252 253 258 264 272 279 283 285 287 288 289 290 291 291 291 291 290 289 288 287 286 285 285 285 285 285 286 286 286 286 286 286 285 284 283 283 282 282 283 283 284 284 285 285
274 273 273 272 269 265 265 266 266 268 272 274 274 275 276 277 276 276 275 275 275 275 275 273 273 273 271 271 272 271 267 264 262 259 255 253 252 252 253 253 253 252 252 255 260 268 275 280 283 285 286 287 289 292 293 293 293 292 292 290 289 288 286 286 286 286 287 287 288 287 287 286 286 285 284 284 283 283 283 284 284 284 284 284 284 284
273 273 271 269 266 264 263 264 266 268 271 272 273 276 277 277 276 275 274 274 274 274 274 272 271 272 271 271 271 268 264 260 258 256 253 252 251 252 253 252 252 252 254 258 264 271 277 280 282 284 285 286 289 292 293 294 294 293 292 291 290 289 288 288 288 288 288 288 288 287 287 286 286 285 284 283 283 284 284 285 285 285 285 285 284 284
272 270 269 267 265 264 264 264 266 268 269 270 273 276 277 276 275 274 273 272 271 272 272 271 272 272 271 271 268 263 261 258 255 254 252 252 252 252 252 252 253 255 258 263 269 274 278 280 282 283 284 287 290 292 293 294 293 293 292 291 291 290 290 290 290 290 290 289 289 288 287 286 285 285 284 285 285 286 286 286 286 286 285 285 284 284
271 270 268 266 265 264 265 266 266 267 268 270 272 274 275 274 273 272 271 271 271 270 270 271 272 272 272 270 264 259 258 256 253 252 252 251 251 250 251 252 254 258 262 267 272 276 278 280 281 283 285 288 291 293 294 294 293 293 293 292 292 292 292 293 293 292 292 291 290 289 288 287 287 286 287 287 287 287 287 286 286 286 285 285 284 284
271 272 269 266 266 266 266 266 265 266 268 270 271 272 272 272 271 271 270 270 269 268 270 273 273 272 270 267 262 256 253 253 252 252 252 251 251 251 252 254 257 260 265 269 273 276 279 281 282 284 287 290 293 295 295 294 294 294 294 293 293 293 293 294 294 293 293 292 291 290 289 289 288 288 289 288 288 288 287 287 287 286 286 286 285 285
270 270 269 267 266 265 264 264 264 265 267 269 270 271 271 272 271 269 268 267 268 270 274 275 273 269 267 267 265 257 250 250 251 252 252 252 252 253 254 257 260 264 268 272 275 278 280 282 283 284 287 290 293 295 295 294 293 292 292 292 292 293 294 294 294 293 293 292 292 291 291 290 290 290 290 290 289 289 289 288 288 288 287 287 287 286
268 268 267 267 266 265 265 265 265 266 267 269 269 269 270 271 268 266 266 267 271 274 276 275 270 266 265 266 266 260 251 249 250 251 252 253 254 256 258 262 266 270 273 276 278 279 280 281 282 284 286 289 292 293 292 291 290 289 290 291 292 294 295 295 294 294 294 293 293 293 292 293 292 292 292 291 291 290 290 290 289 289 289 288 288 287
266 265 265 266 267 268 268 266 265 265 265 264 263 263 263 263 263 264 267 270 273 275 276 274 269 266 266 265 266 265 259 254 252 252 254 256 259 262 265 268 271 274 276 278 279 279 280 282 285 287 289 292 293 293 291 289 288 289 291 293 295 296 296 295 295 295 296 296 295 295 295 295 295 294 294 293 292 292 291 291 290 290 290 289 289 288
265 264 264 266 268 268 267 264 262 261 259 259 258 259 260 259 263 268 272 273 273 273 273 271 269 269 272 271 268 267 264 262 262 263 265 266 268 269 271 273 275 277 279 280 281 282 284 287 290 292 294 295 295 294 292 291 291 293 295 296 297 298 297 297 298 298 298 298 298 298 298 297 297 296 295 294 293 293 292 292 291 290 290 289 288 288
263 264 264 264 265 264 263 261 260 259 258 259 259 261 263 263 266 270 271 271 272 273 272 272 273 276 279 277 271 267 267 268 270 272 274 275 276 278 280 281 282 283 283 284 285 287 290 292 293 295 296 296 295 294 293 293 294 296 297 298 299 299 299 299 299 299 299 299 299 298 298 297 297 296 295 294 293 293 292 292 291 290 289 289 288 287
262 263 262 262 262 261 261 259 258 258 259 260 260 262 266 265 263 262 264 267 269 271 274 276 279 281 281 279 275 272 271 271 272 273 275 278 283 287 288 287 287 286 287 288 290 292 293 295 296 297 297 296 294 293 293 293 294 296 298 299 300 300 300 300 300 300 300 299 299 298 298 297 296 295 295 294 293 293 292 292 291 290 290 289 288 288
261 261 261 261 261 260 259 258 257 257 258 259 260 262 261 256 255 257 261 264 267 271 276 279 281 280 279 278 277 275 274 272 271 272 275 282 289 290 289 288 287 288 290 292 293 294 295 296 297 297 296 294 293 292 292 293 295 297 298 299 300 300 300 300 300 300 300 299 299 298 298 297 296 295 295 294 294 293 293 292 291 291 290 290 289 289
259 261 260 258 258 259 257 256 257 257 258 260 261 260 257 255 256 258 261 266 271 274 277 279 279 278 278 278 277 276 274 272 271 271 277 286 290 289 288 288 288 290 292 293 294 295 296 296 296 295 294 292 291 291 292 294 296 297 298 299 299 299 299 299 299 299 299 299 298 297 297 296 295 294 294 293 293 292 292 291 290 290 290 289 289 288
257 258 258 257 256 257 257 258 260 261 261 261 262 261 259 259 260 262 264 268 272 275 277 279 278 277 279 281 279 276 273 272 270 271 278 286 289 288 288 288 290 292 292 293 293 294 295 295 294 293 293 292 292 292 294 295 296 297 297 298 298 298 299 299 299 298 298 297 297 296 295 295 294 293 293 292 292 291 291 291 290 290 290 289 289 289
254 254 256 257 257 258 260 262 264 264 262 261 260 260 260 260 262 264 266 268 272 275 277 278 277 278 281 282 278 273 271 270 270 271 278 285 287 288 288 290 291 291 291 291 292 293 293 293 293 293 293 293 293 293 294 295 296 296 297 297 298 298 298 298 297 297 296 296 295 295 294 294 293 293 293 292 292 291 291 291 291 290 290 290 290 290
254 253 255 257 257 258 260 262 263 263 261 259 259 259 258 258 259 261 264 269 273 275 278 278 276 277 280 279 275 271 270 270 269 271 278 285 287 288 288 289 289 288 289 290 291 292 293 293 293 293 293 292 292 293 293 294 295 296 296 296 297 297 297 296 296 295 295 295 295 294 294 294 293 293 292 292 292 291 291 291 290 290 290 290 291 291
254 252 252 254 256 257 258 259 260 260 259 259 257 256 256 256 259 262 268 274 277 277 277 276 275 276 278 277 274 272 273 273 271 272 278 284 287 289 289 288 287 288 289 290 291 292 291 291 291 291 292 291 291 292 292 293 294 295 295 296 296 296 296 295 295 295 295 295 294 294 294 294 293 292 292 291 291 291 291 291 290 290 291 291 292 292
257 253 253 254 256 258 259 258 257 257 257 257 257 256 257 259 263 268 272 276 276 276 276 274 273 276 277 276 274 273 274 275 274 273 277 283 287 288 287 286 286 287 288 288 289 289 289 289 289 290 291 290 290 291 292 293 293 294 296 296 296 296 295 295 295 296 296 295 295 295 294 294 293 292 292 292 292 292 291 291 291 291 292 292 292 293
259 257 257 257 257 258 258 257 256 257 259 261 261 260 262 265 269 272 274 275 274 274 274 272 272 274 275 274 273 272 274 277 276 273 274 280 284 285 284 285 285 285 285 286 286 286 286 287 288 288 288 288 289 290 291 293 294 295 296 296 296 295 296 296 296 296 296 296 295 295 294 293 293 292 292 293 293 293 292 292 292 292 292 292 292 292
259 258 259 258 258 259 259 260 261 262 263 264 264 264 266 268 271 273 273 271 270 270 270 270 271 272 273 273 272 271 272 274 275 272 272 276 280 283 284 285 284 284 285 285 285 285 285 286 286 287 288 289 290 291 293 295 296 297 297 296 296 296 296 296 296 296 296 295 295 294 293 292 292 292 293 293 293 292 292 292 292 292 292 292 292 292
258 259 261 261 261 261 261 261 262 262 262 261 261 262 264 265 267 267 266 267 269 269 269 271 271 271 272 272 271 270 269 269 269 269 270 275 280 283 284 283 283 284 284 284 284 284 284 285 286 288 290 291 293 295 296 298 298 298 297 296 296 296 296 295 295 295 294 294 293 293 292 292 292 292 292 292 292 292 292 292 292 292 292 292 292 292
257 259 261 263 263 263 263 262 262 261 261 261 261 262 263 264 264 263 264 267 270 270 271 272 271 270 271 271 270 269 267 265 265 269 274 279 281 281 281 281 282 283 283 282 282 282 283 285 288 290 292 294 295 297 298 298 298 297 296 296 295 295 295 294 294 294 293 293 292 292 292 291 291 292 292 292 292 292 292 292 292 292 292 292 292 292
258 257 257 258 259 260 262 263 263 263 262 262 262 262 263 264 263 263 265 268 270 270 271 272 270 270 269 268 267 265 262 263 269 276 279 280 278 278 279 281 282 281 280 280 281 282 285 287 290 292 294 296 297 298 298 297 296 295 295 295 294 294 294 294 294 293 292 292 291 291 291 291 291 291 291 291 291 291 291 291 292 292 292 292 293 293
259 258 257 256 256 257 259 260 262 262 263 263 262 262 263 263 262 263 266 267 268 269 271 271 269 269 269 268 266 262 263 270 276 277 276 275 276 277 278 279 278 278 278 280 282 284 287 290 292 294 295 297 297 297 296 295 294 294 294 294 293 293 294 294 293 291 291 291 290 290 290 290 290 290 290 290 290 291 291 292 292 293 293 293 293 293
259 259 257 255 256 256 257 258 259 260 261 261 259 260 262 261 261 262 265 266 268 272 274 271 269 269 270 268 265 264 268 273 274 272 272 274 275 276 275 275 275 276 278 279 282 285 289 292 294 295 296 296 296 295 294 294 293 293 293 293 293 293 292 291 291 290 290 289 289 289 289 289 289 289 290 290 290 291 291 292 293 293 293 293 293 293
258 258 257 255 255 255 256 256 257 257 258 259 257 256 258 259 261 263 266 269 272 274 272 269 268 270 268 264 263 267 270 271 270 271 272 272 272 272 272 273 274 276 279 281 284 288 291 293 294 295 295 294 294 293 293 292 292 293 293 292 291 290 290 289 289 288 288 288 288 288 288 288 288 289 289 289 290 291 292 293 293 293 293 293 293 293
257 259 259 257 257 257 256 256 257 258 261 260 257 256 260 263 265 268 270 271 271 269 267 266 268 268 265 262 264 268 270 269 268 268 268 268 269 269 271 273 276 278 281 284 287 290 292 294 294 294 293 292 292 292 291 291 292 292 291 289 288 287 287 287 286 286 286 286 287 287 287 287 288 288 289 289 290 292 292 293 293 293 293 293 293 293
259 261 263 263 262 261 259 259 259 261 262 261 260 261 264 267 269 268 268 267 266 265 264 264 265 264 264 265 267 268 267 265 264 264 265 266 267 269 273 276 279 282 284 287 290 292 293 293 293 292 291 291 290 290 290 290 289 288 287 285 285 285 285 285 285 285 285 285 286 287 287 287 288 289 289 290 291 292 292 292 293 293 293 293 293 294
262 264 265 266 266 266 264 262 259 260 262 263 264 265 266 267 266 264 262 261 261 261 262 262 262 263 264 265 265 264 264 263 263 264 265 267 270 274 278 280 282 285 287 290 291 292 292 292 291 290 289 289 289 288 287 286 285 284 284 284 284 284 284 284 284 285 285 285 286 287 287 288 288 289 290 290 291 291 292 292 293 293 293 294 295 296
266 266 266 265 265 264 263 261 259 261 263 263 263 263 263 263 261 260 259 258 258 259 259 260 262 263 263 263 262 262 262 263 263 264 267 272 277 280 281 282 285 288 290 291 292 292 291 290 289 289 288 287 286 285 284 283 283 283 282 282 283 283 283 283 284 285 286 287 287 288 287 288 288 289 289 290 290 291 291 292 292 293 295 296 297 297
266 266 264 262 261 259 259 258 259 260 259 259 260 261 260 259 258 257 257 257 258 259 260 261 262 261 261 262 262 263 265 266 266 267 272 278 280 281 283 286 289 290 291 291 291 291 290 288 287 286 285 284 284 283 282 281 281 281 281 282 282 282 283 283 284 286 287 287 287 287 287 288 288 288 289 289 290 290 291 292 294 295 297 297 298 298
263 261 259 258 256 255 255 255 255 256 256 257 259 259 258 257 257 257 258 258 259 260 260 260 260 260 261 263 265 267 269 270 270 272 277 281 282 284 287 289 290 290 290 290 289 288 287 286 285 284 283 282 281 280 280 280 280 281 281 281 282 282 283 284 286 287 288 287 287 287 287 288 288 288 288 288 289 290 292 294 296 297 298 299 299 299
259 257 256 255 255 255 255 255 255 257 258 259 258 258 257 257 256 257 258 259 260 260 259 260 261 262 264 266 268 271 272 274 275 278 281 283 285 288 289 290 290 289 288 287 286 285 284 283 282 281 280 279 279 279 280 280 280 281 281 282 283 284 285 286 287 287 287 287 287 287 287 286 286 286 286 287 289 291 294 296 297 298 299 300 301 300
257 257 256 256 257 257 256 256 257 258 260 259 258 257 256 255 255 256 257 258 258 258 259 262 264 266 267 270 271 274 277 280 282 283 284 285 287 289 290 290 289 288 286 285 284 283 282 281 280 279 279 279 279 280 281 281 281 282 283 284 284 286 287 287 287 287 286 286 286 285 284 284 284 285 287 289 291 293 295 297 298 299 301 302 301 300
257 257 256 255 256 256 255 255 256 257 258 258 257 256 255 256 257 258 260 261 260 259 261 264 265 267 270 273 276 278 281 283 284 285 286 287 289 290 290 289 288 286 285 284 283 282 281 281 280 279 280 280 281 282 282 282 283 284 285 285 287 288 288 287 287 287 286 285 284 283 282 283 284 286 288 290 292 294 296 298 300 301 302 302 301 299
255 254 253 253 254 254 254 255 255 255 257 258 258 257 257 260 262 262 263 265 265 265 266 268 269 272 274 276 279 281 283 284 286 287 288 289 289 289 289 288 287 286 285 283 283 282 281 281 281 281 282 282 283 283 284 284 285 286 287 288 289 288 287 287 287 286 284 283 282 282 282 283 285 287 289 291 293 296 298 299 300 301 302 301 300 299
251 251 251 252 254 254 254 255 257 259 259 259 260 262 262 264 267 268 269 270 271 272 273 274 277 279 280 281 282 284 285 287 288 289 289 289 289 288 287 286 286 285 284 283 283 282 282 282 282 283 283 284 284 285 285 286 287 288 289 290 289 287 286 286 285 283 282 281 281 282 283 285 286 288 290 293 295 297 299 300 300 300 300 299 298 297
249 251 253 255 255 257 258 259 261 264 263 262 264 267 268 270 273 274 276 277 277 277 279 280 282 282 283 284 285 286 287 289 289 288 288 287 287 286 286 285 284 284 283 283 283 283 283 283 284 284 284 285 286 286 287 288 288 289 290 289 287 285 285 283 282 281 280 281 281 283 284 286 287 289 292 294 296 297 298 298 299 299 298 297 297 296
252 254 257 259 260 261 263 265 267 269 270 270 271 273 275 276 277 278 280 281 282 282 282 283 283 284 285 286 287 288 288 288 287 287 286 286 286 286 285 285 284 284 284 284 284 284 284 284 285 285 286 287 287 287 288 288 288 289 288 286 284 283 282 280 279 280 280 281 283 284 285 287 289 291 293 295 296 296 297 297 296 296 296 295 294 294
258 259 261 262 263 265 266 268 269 272 274 275 276 276 277 278 279 279 281 281 281 281 282 282 283 284 285 286 287 287 286 285 285 284 285 285 285 285 285 285 285 284 284 284 284 284 284 285 286 286 287 287 287 288 288 288 287 287 285 282 280 280 279 278 279 280 281 282 284 285 286 288 290 291 293 294 294 294 294 294 294 294 294 293 292 292
261 262 263 263 264 266 268 269 270 272 274 276 276 277 277 277 277 277 276 277 277 278 280 281 283 283 283 284 284 283 283 283 282 282 283 283 284 284 284 284 284 284 284 284 284 285 285 286 287 287 287 287 287 287 287 286 285 284 281 279 279 278 278 278 279 281 282 284 285 286 287 289 290 291 291 292 292 292 292 293 293 293 292 291 291 291
261 263 265 266 267 268 270 271 272 274 275 276 276 275 274 273 272 272 273 274 277 279 280 281 281 281 281 281 281 280 280 281 281 281 281 282 283 283 283 283 283 284 284 285 285 286 286 286 286 287 287 287 287 286 285 284 283 280 278 278 278 278 278 280 281 282 283 284 285 286 287 288 289 289 290 290 290 290 291 292 292 293 292 291 290 290
263 264 267 269 270 271 272 274 275 275 274 273 271 270 270 269 270 272 274 276 278 279 279 278 278 278 278 278 278 279 279 280 280 281 281 282 282 283 283 283 284 284 285 285 285 285 286 286 286 286 286 285 284 283 282 281 280 278 277 277 277 278 280 281 282 283 284 285 286 287 287 288 288 289 289 289 289 290 291 291 292 293 293 292 290 290
266 268 270 271 272 273 273 273 273 272 271 270 270 269 270 271 273 274 275 277 277 277 276 275 275 276 277 278 278 279 280 280 280 281 281 282 283 283 284 284 284 285 285 285 285 285 285 285 284 283 283 282 280 278 278 277 276 276 277 277 278 278 279 280 281 282 284 285 286 286 287 287 288 288 289 289 289 289 290 290 291 292 292 292 291 290
269 271 271 271 271 271 272 271 271 270 270 271 271 270 271 273 274 275 276 276 276 275 275 275 276 278 279 279 279 280 280 280 280 280 281 282 283 284 284 284 284 284 284 284 284 284 284 283 282 280 279 277 275 275 275 275 274 275 275 275 276 277 278 279 280 282 283 284 285 285 286 286 287 288 288 289 289 289 289 289 289 290 291 292 292 290
Height
5814 5812 5813 5816 5818 5816 5815 5814 5813 5813 5814 5814 5814 5813 5814 5814 5815 5814 5812 5813 5811 5808 5809 5810 5811 5812 5810 5809 5811 5810 5809 5809 5809 5809 5809 5810 5810 5810 5810 5810 5810 5811 5811 5811 5812 5812 5812 5812 5812 5812 5812 5811 5811 5811 5811 5811 5810 5810 5809 5809 5809 5808 5808 5807 5807 5806 5806 5805 5805 5804 5804 5803 5802 5801 5801 5800 5799 5798 5797 5797 5796 5795 5794 5793 5792 5791
5810 5808 5811 5814 5813 5811 5810 5810 5809 5810 5810 5810 5810 5810 5809 5810 5811 5810 5808 5809 5807 5804 5805 5807 5807 5808 5806 5805 5807 5806 5805 5805 5805 5805 5805 5806 5807 5807 5807 5807 5807 5808 5808 5808 5808 5808 5808 5808 5809 5808 5808 5808 5808 5808 5807 5807 5807 5806 5806 5805 5805 5805 5804 5804 5803 5803 5802 5801 5801 5800 5799 5798 5798 5797 5796 5795 5794 5793 5793 5792 5791 5790 5789 5788 5787 5786
5805 5805 5809 5809 5808 5807 5806 5806 5806 5806 5806 5806 5806 5806 5805 5806 5806 5805 5803 5804 5803 5801 5801 5802 5803 5803 5802 5802 5803 5802 5802 5802 5801 5801 5802 5802 5803 5803 5804 5804 5804 5804 5805 5805 5805 5805 5805 5805 5805 5805 5805 5805 5804 5804 5803 5803 5803 5802 5802 5801 5801 5801 5800 5800 5799 5798 5798 5797 5796 5795 5794 5794 5793 5792 5791 5790 5790 5789 5788 5787 5786 5785 5783 5782 5781 5780
5801 5801 5804 5803 5803 5803 5803 5802 5803 5802 5802 5802 5802 5801 5801 5802 5802 5799 5797 5798 5800 5798 5797 5798 5798 5798 5798 5798 5799 5798 5798 5798 5797 5798 5798 5799 5799 5800 5800 5800 5801 5801 5801 5802 5801 5801 5802 5801 5802 5801 5801 5801 5801 5800 5800 5799 5799 5798 5798 5798 5797 5797 5796 5796 5795 5794 5794 5793 5792 5791 5790 5789 5788 5787 5787 5786 5785 5783 5782 5781 5780 5779 5778 5777 5775 5774
5796 5795 5797 5799 5798 5799 5798 5798 5798 5798 5797 5797 5797 5797 5797 5797 5796 5794 5792 5792 5794 5793 5793 5793 5792 5793 5795 5794 5795 5794 5794 5794 5794 5794 5795 5795 5796 5796 5797 5797 5797 5798 5798 5798 5798 5798 5798 5798 5798 5798 5798 5797 5797 5797 5796 5796 5795 5795 5794 5794 5793 5793 5792 5792 5791 5790 5789 5789 5788 5787 5786 5785 5784 5783 5782 5781 5780 5778 5777 5776 5775 5773 5772 5771 5770 5769
5792 5790 5791 5795 5794 5794 5793 5793 5794 5793 5793 5792 5791 5792 5794 5793 5790 5789 5788 5788 5788 5787 5789 5789 5786 5787 5791 5790 5790 5790 5790 5790 5790 5791 5791 5792 5792 5793 5793 5794 5794 5794 5794 5794 5794 5794 5795 5794 5794 5794 5794 5794 5793 5793 5793 5792 5792 5791 5790 5790 5789 5789 5788 5787 5787 5786 5785 5785 5784 5783 5782 5781 5780 5779 5778 5776 5775 5774 5772 5771 5770 5769 5767 5766 5765 5764
5787 5785 5787 5789 5789 5788 5788 5787 5788 5789 5789 5787 5784 5787 5790 5788 5785 5784 5784 5784 5782 5781 5784 5785 5782 5781 5784 5786 5787 5786 5786 5786 5786 5787 5788 5788 5789 5789 5789 5790 5790 5790 5791 5791 5791 5791 5791 5791 5791 5790 5790 5790 5789 5789 5789 5788 5788 5787 5786 5786 5785 5784 5784 5783 5783 5782 5781 5780 5780 5779 5777 5776 5775 5774 5773 5772 5770 5769 5768 5766 5765 5764 5762 5761 5759 5758
5782 5782 5782 5783 5783 5782 5782 5782 5784 5786 5785 5781 5780 5783 5784 5782 5781 5779 5779 5779 5778 5776 5777 5779 5779 5778 5778 5781 5783 5782 5781 5782 5783 5783 5784 5784 5785 5785 5786 5786 5786 5787 5787 5787 5787 5787 5787 5787 5787 5786 5786 5786 5785 5785 5784 5784 5783 5782 5782 5781 5780 5779 5779 5778 5778 5777 5776 5775 5774 5773 5772 5771 5770 5769 5767 5766 5765 5764 5762 5761 5760 5758 5757 5755 5753 5752
5776 5776 5776 5777 5777 5776 5777 5778 5780 5781 5779 5776 5776 5778 5778 5777 5776 5775 5774 5773 5773 5772 5770 5772 5775 5774 5774 5777 5779 5777 5777 5778 5779 5780 5780 5780 5781 5782 5782 5782 5783 5783 5783 5784 5784 5784 5783 5783 5783 5782 5782 5781 5781 5780 5780 5779 5778 5777 5776 5776 5775 5774 5774 5773 5773 5772 5771 5770 5769 5767 5766 5765 5764 5763 5762 5761 5759 5758 5757 5755 5753 5752 5750 5749 5747 5745
5769 5771 5772 5772 5772 5771 5773 5774 5775 5775 5773 5772 5773 5773 5772 5771 5771 5770 5769 5768 5767 5766 5765 5768 5771 5771 5770 5772 5773 5773 5774 5775 5775 5775 5776 5777 5777 5778 5778 5778 5779 5779 5780 5780 5780 5780 5779 5779 5779 5778 5778 5777 5776 5775 5774 5774 5773 5772 5771 5770 5770 5769 5769 5768 5767 5766 5765 5764 5763 5761 5760 5759 5758 5757 5755 5754 5753 5751 5750 5748 5746 5745 5743 5741 5740 5738
5764 5766 5767 5767 5767 5768 5768 5769 5769 5769 5768 5768 5768 5768 5767 5767 5766 5765 5764 5763 5761 5760 5762 5766 5768 5767 5765 5765 5767 5770 5771 5770 5771 5772 5772 5773 5774 5774 5775 5775 5775 5776 5776 5776 5776 5776 5775 5775 5774 5774 5773 5772 5771 5770 5769 5769 5768 5767 5766 5766 5765 5764 5764 5763 5762 5760 5759 5758 5757 5755 5754 5753 5751 5750 5749 5747 5746 5744 5743 5741 5739 5737 5735 5734 5732 5730
5760 5760 5761 5762 5762 5762 5763 5763 5763 5764 5764 5763 5763 5763 5762 5762 5761 5760 5758 5758 5756 5756 5760 5763 5763 5762 5760 5759 5763 5767 5768 5767 5767 5769 5769 5770 5770 5771 5771 5771 5772 5772 5772 5772 5772 5771 5771 5770 5770 5769 5769 5768 5767 5766 5765 5764 5763 5762 5761 5760 5760 5759 5758 5757 5756 5754 5753 5752 5751 5749 5748 5746 5745 5743 5742 5740 5738 5737 5735 5733 5731 5729 5727 5725 5724 5722
5755 5755 5755 5756 5756 5757 5757 5758 5759 5759 5760 5760 5759 5758 5758 5757 5755 5754 5753 5753 5754 5755 5757 5759 5759 5757 5755 5757 5759 5762 5765 5765 5765 5766 5766 5767 5767 5768 5768 5768 5768 5768 5768 5768 5767 5767 5766 5766 5766 5765 5765 5764 5763 5762 5761 5759 5758 5757 5756 5755 5754 5754 5753 5751 5750 5748 5747 5745 5744 5743 5741 5739 5738 5736 5734 5733 5731 5729 5727 5725 5723 5721 5719 5717 5715 5714
5749 5750 5751 5751 5752 5753 5753 5753 5754 5755 5755 5755 5754 5753 5753 5752 5749 5749 5751 5751 5751 5752 5752 5754 5754 5751 5752 5755 5756 5757 5760 5761 5761 5762 5763 5764 5764 5764 5764 5764 5764 5764 5763 5763 5763 5762 5762 5762 5761 5760 5759 5759 5757 5756 5755 5754 5752 5751 5750 5750 5749 5748 5746 5745 5743 5742 5740 5739 5737 5736 5734 5732 5730 5729 5727 5725 5723 5721 5719 5717 5715 5713 5711 5709 5707 5705
5744 5745 5747 5748 5748 5748 5748 5748 5748 5749 5750 5749 5749 5748 5748 5748 5746 5747 5749 5748 5747 5748 5748 5748 5748 5747 5749 5753 5755 5755 5755 5756 5757 5758 5759 5760 5760 5760 5760 5759 5759 5759 5758 5758 5757 5757 5756 5756 5755 5754 5753 5752 5750 5749 5747 5746 5745 5744 5743 5743 5741 5740 5739 5737 5736 5734 5733 5732 5730 5728 5726 5725 5723 5721 5719 5717 5715 5713 5711 5709 5706 5704 5702 5700 5698 5697
5739 5740 5742 5744 5743 5743 5743 5743 5744 5744 5745 5745 5745 5744 5744 5746 5747 5746 5746 5745 5744 5744 5744 5744 5744 5745 5747 5750 5751 5751 5751 5752 5752 5752 5753 5753 5753 5753 5753 5753 5752 5752 5751 5751 5750 5750 5750 5749 5748 5747 5746 5745 5743 5742 5740 5738 5737 5737 5736 5735 5734 5732 5731 5730 5728 5727 5726 5724 5723 5721 5719 5717 5715 5713 5711 5709 5707 5705 5703 5701 5699 5696 5694 5692 5690 5688
5734 5735 5737 5739 5738 5738 5739 5739 5740 5740 5740 5740 5740 5740 5742 5745 5744 5742 5741 5741 5740 5739 5739 5741 5742 5743 5744 5745 5745 5745 5746 5747 5747 5746 5746 5746 5746 5746 5745 5745 5745 5744 5744 5744 5743 5743 5742 5742 5741 5740 5739 5738 5736 5735 5734 5733 5732 5730 5729 5728 5727 5725 5724 5723 5721 5720 5719 5717 5715 5713 5712 5710 5707 5705 5703 5701 5699 5697 5695 5693 5690 5688 5686 5683 5681 5679
5729 5729 5731 5733 5733 5733 5734 5734 5735 5735 5734 5734 5736 5738 5740 5740 5738 5737 5737 5736 5736 5735 5735 5737 5738 5739 5739 5739 5740 5741 5741 5741 5741 5740 5740 5740 5740 5739 5739 5738 5738 5738 5738 5737 5737 5736 5736 5735 5735 5734 5733 5731 5730 5729 5728 5727 5726 5724 5723 5721 5720 5718 5717 5716 5715 5713 5711 5710 5708 5706 5704 5702 5700 5697 5695 5693 5691 5689 5686 5684 5681 5679 5677 5674 5672 5670
5724 5723 5725 5727 5728 5728 5729 5729 5729 5730 5730 5731 5733 5735 5735 5734 5733 5734 5733 5732 5732 5732 5732 5732 5732 5734 5734 5734 5735 5736 5735 5734 5734 5735 5735 5735 5734 5733 5732 5732 5732 5732 5732 5731 5730 5730 5729 5729 5729 5728 5727 5725 5724 5723 5722 5721 5719 5718 5716 5715 5713 5712 5711 5709 5708 5706 5704 5703 5701 5698 5696 5694 5692 5690 5688 5685 5683 5681 5678 5675 5673 5670 5668 5665 5663 5660
5719 5718 5718 5721 5723 5723 5723 5723 5724 5725 5727 5728 5729 5730 5730 5729 5729 5729 5728 5729 5728 5727 5728 5728 5727 5729 5729 5729 5730 5731 5729 5728 5728 5730 5730 5729 5728 5727 5726 5726 5726 5726 5725 5724 5724 5723 5723 5723 5722 5721 5720 5719 5718 5717 5716 5715 5713 5711 5710 5708 5707 5705 5704 5702 5701 5699 5697 5695 5693 5691 5689 5686 5684 5682 5679 5677 5674 5672 5669 5666 5664 5661 5658 5656 5653 5651
5711 5712 5712 5714 5717 5718 5717 5719 5721 5722 5723 5724 5724 5724 5725 5725 5724 5723 5723 5724 5724 5722 5723 5723 5722 5723 5723 5723 5724 5724 5723 5722 5723 5725 5725 5723 5722 5721 5720 5720 5720 5719 5718 5718 5718 5718 5717 5717 5716 5714 5713 5713 5712 5710 5709 5708 5706 5705 5703 5701 5700 5698 5697 5695 5693 5692 5690 5688 5685 5683 5681 5678 5676 5673 5670 5667 5665 5662 5660 5657 5655 5652 5649 5646 5644 5641
5705 5707 5708 5707 5709 5712 5712 5714 5716 5716 5717 5718 5718 5718 5718 5718 5718 5717 5717 5718 5719 5718 5718 5718 5717 5718 5717 5716 5716 5717 5716 5717 5719 5720 5718 5716 5716 5715 5714 5714 5713 5712 5712 5712 5712 5712 5711 5710 5709 5708 5707 5706 5705 5704 5703 5701 5700 5698 5696 5695 5693 5691 5690 5688 5686 5684 5682 5679 5677 5674 5672 5669 5666 5664 5661 5658 5656 5653 5651 5648 5646 5643 5640 5637 5634 5632
5701 5700 5701 5700 5702 5705 5707 5708 5710 5709 5710 5711 5711 5710 5710 5711 5712 5712 5712 5713 5713 5713 5714 5713 5711 5712 5711 5709 5709 5709 5710 5711 5713 5713 5712 5710 5709 5708 5707 5706 5706 5705 5706 5706 5705 5705 5704 5704 5703 5702 5701 5700 5699 5697 5696 5694 5693 5691 5690 5688 5686 5684 5682 5679 5677 5675 5673 5670 5668 5665 5662 5660 5657 5654 5652 5649 5647 5644 5642 5639 5637 5634 5631 5628 5625 5622
5694 5694 5694 5694 5696 5700 5701 5702 5702 5702 5702 5702 5703 5704 5704 5706 5708 5708 5707 5707 5706 5708 5709 5707 5704 5704 5705 5704 5703 5703 5704 5705 5707 5707 5705 5704 5703 5701 5700 5700 5699 5700 5700 5699 5699 5699 5698 5697 5696 5696 5695 5693 5692 5690 5689 5688 5687 5685 5683 5681 5678 5675 5673 5670 5668 5666 5664 5661 5658 5655 5653 5650 5647 5645 5642 5640 5637 5635 5633 5630 5627 5624 5622 5619 5616 5613
5688 5688 5689 5688 5691 5693 5693 5694 5695 5696 5696 5697 5699 5701 5701 5703 5704 5702 5702 5700 5699 5702 5703 5700 5698 5698 5698 5698 5697 5698 5700 5700 5700 5700 5698 5697 5696 5695 5694 5694 5694 5694 5693 5693 5692 5692 5691 5690 5690 5689 5688 5687 5685 5684 5683 5681 5680 5678 5675 5672 5669 5666 5664 5661 5659 5657 5654 5651 5649 5646 5643 5640 5637 5634 5632 5630 5627 5625 5623 5620 5618 5615 5612 5610 5607 5605
5681 5682 5682 5681 5684 5685 5686 5688 5690 5691 5692 5693 5695 5696 5697 5698 5697 5696 5695 5692 5692 5696 5695 5693 5693 5691 5691 5692 5692 5693 5694 5694 5694 5692 5690 5689 5689 5688 5687 5687 5686 5686 5685 5685 5684 5684 5684 5684 5683 5682 5680 5679 5678 5676 5675 5673 5671 5669 5666 5663 5660 5657 5655 5652 5650 5647 5645 5642 5639 5636 5633 5630 5627 5624 5622 5620 5618 5616 5613 5611 5608 5606 5604 5602 5599 5597
5673 5674 5674 5674 5677 5678 5680 5682 5683 5684 5685 5686 5688 5689 5690 5690 5690 5688 5686 5683 5685 5688 5688 5688 5688 5685 5686 5687 5686 5687 5687 5687 5687 5685 5682 5682 5681 5680 5679 5678 5678 5678 5678 5678 5677 5677 5677 5677 5675 5674 5672 5671 5669 5667 5665 5664 5661 5659 5657 5654 5652 5649 5646 5643 5641 5638 5635 5633 5630 5627 5623 5620 5618 5616 5613 5611 5609 5606 5604 5602 5600 5598 5596 5593 5591 5588
5666 5666 5668 5669 5669 5671 5673 5674 5675 5676 5677 5678 5680 5681 5681 5682 5681 5678 5676 5678 5680 5678 5679 5684 5682 5679 5682 5681 5678 5680 5680 5678 5678 5677 5675 5675 5673 5672 5671 5671 5671 5671 5671 5671 5671 5671 5671 5669 5668 5666 5664 5663 5661 5659 5656 5655 5653 5650 5648 5646 5643 5641 5638 5634 5632 5629 5626 5623 5621 5618 5615 5612 5609 5607 5605 5602 5600 5597 5595 5593 5592 5590 5588 5585 5583 5580
5658 5660 5664 5664 5661 5663 5665 5666 5668 5669 5669 5670 5672 5673 5674 5673 5672 5669 5669 5673 5672 5668 5673 5678 5674 5673 5676 5673 5670 5673 5672 5670 5671 5670 5668 5666 5664 5663 5664 5664 5665 5664 5663 5664 5664 5663 5663 5661 5660 5658 5656 5654 5653 5651 5648 5646 5645 5643 5641 5638 5635 5632 5628 5625 5623 5620 5617 5614 5612 5609 5606 5603 5600 5598 5596 5593 5591 5589 5587 5586 5584 5582 5579 5577 5574 5571
5651 5652 5657 5656 5654 5656 5657 5658 5660 5661 5660 5662 5664 5665 5666 5666 5664 5663 5664 5665 5662 5661 5668 5670 5665 5667 5670 5665 5663 5666 5666 5664 5663 5661 5660 5658 5656 5656 5657 5657 5658 5657 5658 5657 5656 5655 5654 5653 5652 5649 5647 5646 5644 5643 5641 5638 5636 5634 5632 5629 5626 5622 5619 5617 5613 5611 5608 5605 5603 5601 5598 5595 5592 5590 5587 5585 5583 5581 5579 5578 5575 5573 5571 5568 5565 5562
5645 5646 5649 5649 5646 5647 5649 5651 5652 5651 5652 5653 5654 5657 5659 5657 5655 5655 5656 5657 5655 5657 5662 5660 5655 5660 5664 5660 5658 5659 5659 5657 5653 5652 5651 5650 5650 5650 5649 5649 5650 5651 5651 5650 5648 5647 5646 5645 5643 5641 5639 5637 5635 5634 5632 5630 5628 5625 5623 5620 5617 5613 5610 5608 5605 5602 5600 5597 5595 5592 5589 5587 5584 5581 5579 5577 5575 5573 5571 5570 5567 5564 5562 5559 5555 5552
5639 5639 5641 5641 5638 5638 5642 5643 5643 5644 5644 5642 5645 5652 5651 5646 5646 5648 5650 5651 5650 5651 5652 5649 5648 5654 5657 5655 5652 5650 5649 5647 5645 5645 5644 5644 5643 5643 5642 5642 5643 5644 5643 5642 5641 5640 5639 5638 5635 5633 5632 5629 5627 5625 5623 5621 5618 5616 5614 5611 5607 5604 5602 5599 5597 5594 5592 5589 5587 5584 5581 5579 5576 5574 5572 5570 5567 5565 5563 5561 5558 5555 5552 5549 5545 5542
5633 5633 5634 5634 5631 5631 5634 5635 5636 5636 5633 5631 5639 5647 5642 5638 5640 5643 5644 5645 5644 5642 5642 5641 5644 5648 5647 5646 5644 5642 5640 5640 5638 5638 5638 5637 5636 5635 5636 5637 5636 5636 5634 5633 5633 5633 5631 5630 5628 5625 5624 5621 5619 5617 5614 5611 5609 5607 5605 5602 5598 5596 5593 5592 5589 5587 5585 5582 5579 5576 5574 5571 5569 5566 5564 5562 5559 5557 5554 5552 5549 5545 5542 5539 5535 5532
5627 5627 5627 5627 5625 5623 5626 5629 5629 5625 5623 5627 5636 5640 5635 5633 5636 5635 5635 5637 5636 5634 5634 5635 5639 5639 5636 5635 5636 5634 5632 5632 5631 5631 5632 5631 5630 5629 5629 5629 5628 5627 5626 5625 5625 5624 5622 5621 5619 5617 5615 5613 5610 5608 5605 5602 5601 5598 5596 5593 5590 5588 5585 5583 5581 5579 5578 5575 5572 5569 5566 5563 5561 5558 5556 5553 5550 5548 5545 5542 5539 5536 5533 5530 5526 5523
5620 5620 5620 5620 5618 5617 5619 5621 5618 5614 5618 5626 5631 5632 5631 5629 5628 5626 5626 5630 5630 5628 5626 5626 5629 5630 5627 5626 5627 5624 5623 5624 5624 5625 5626 5624 5623 5622 5622 5621 5620 5619 5618 5618 5617 5615 5613 5612 5610 5608 5606 5604 5601 5599 5596 5594 5592 5590 5587 5584 5581 5580 5577 5575 5573 5571 5570 5567 5564 5561 5558 5555 5553 5550 5547 5544 5542 5539 5536 5533 5530 5527 5524 5521 5518 5515
5613 5613 5613 5612 5611 5610 5610 5610 5607 5608 5617 5623 5623 5624 5624 5621 5620 5619 5617 5622 5624 5621 5618 5618 5621 5622 5619 5616 5616 5615 5615 5617 5617 5618 5619 5617 5615 5614 5614 5613 5612 5611 5610 5609 5608 5606 5604 5602 5600 5598 5597 5595 5593 5590 5588 5585 5583 5581 5579 5576 5574 5572 5570 5567 5565 5563 5561 5559 5556 5553 5550 5547 5545 5541 5538 5536 5533 5530 5527 5524 5522 5519 5516 5513 5510 5507
5605 5605 5606 5605 5603 5603 5602 5601 5602 5604 5610 5616 5617 5617 5616 5613 5613 5611 5608 5613 5617 5612 5609 5612 5614 5614 5611 5607 5607 5608 5607 5607 5608 5613 5614 5609 5606 5606 5605 5605 5604 5602 5601 5600 5598 5597 5595 5593 5591 5589 5588 5586 5583 5581 5579 5577 5575 5573 5571 5569 5566 5564 5562 5559 5557 5555 5553 5551 5548 5544 5541 5538 5536 5533 5530 5527 5525 5522 5519 5517 5514 5511 5508 5505 5502 5499
5598 5597 5599 5597 5595 5596 5595 5594 5595 5595 5601 5612 5614 5611 5608 5605 5604 5602 5598 5604 5610 5606 5603 5605 5606 5606 5603 5600 5599 5599 5597 5597 5601 5607 5606 5600 5597 5598 5598 5596 5595 5593 5591 5590 5589 5587 5586 5584 5582 5580 5578 5577 5574 5572 5570 5568 5566 5564 5563 5561 5559 5556 5554 5551 5549 5547 5545 5542 5538 5535 5532 5530 5527 5525 5522 5519 5517 5514 5512 5509 5506 5504 5501 5497 5495 5491
5590 5591 5592 5590 5588 5589 5588 5587 5587 5588 5597 5609 5609 5603 5601 5597 5596 5593 5587 5592 5604 5603 5596 5597 5598 5597 5595 5593 5591 5591 5589 5589 5594 5598 5596 5591 5589 5589 5589 5587 5585 5583 5582 5581 5579 5578 5576 5575 5573 5571 5569 5567 5565 5564 5562 5560 5558 5556 5554 5552 5550 5548 5546 5543 5541 5538 5535 5532 5529 5526 5524 5521 5519 5516 5514 5512 5509 5507 5504 5502 5499 5496 5493 5490 5487 5484
5583 5583 5584 5582 5581 5583 5581 5579 5580 5583 5592 5601 5599 5595 5593 5589 5587 5583 5577 5584 5598 5596 5587 5589 5590 5587 5586 5585 5584 5584 5583 5583 5585 5587 5586 5584 5582 5581 5579 5578 5576 5574 5573 5571 5570 5568 5566 5565 5563 5561 5560 5558 5556 5555 5553 5551 5549 5547 5546 5544 5541 5539 5537 5534 5531 5528 5525 5523 5521 5518 5516 5514 5511 5509 5507 5504 5502 5499 5497 5494 5491 5488 5485 5482 5479 5476
5576 5576 5576 5575 5576 5576 5574 5572 5572 5576 5585 5592 5589 5586 5585 5580 5576 5575 5573 5578 5586 5583 5579 5580 5580 5579 5579 5578 5577 5578 5578 5576 5575 5576 5575 5575 5574 5572 5570 5568 5566 5565 5563 5562 5560 5559 5557 5555 5553 5552 5550 5549 5547 5546 5544 5542 5540 5539 5536 5534 5533 5530 5527 5523 5520 5518 5516 5514 5512 5510 5508 5506 5503 5501 5499 5497 5494 5492 5489 5486 5483 5480 5477 5475 5472 5469
5568 5568 5567 5568 5570 5570 5568 5565 5563 5567 5580 5586 5580 5576 5577 5572 5566 5567 5569 5569 5571 5572 5572 5571 5571 5571 5571 5571 5570 5570 5568 5567 5566 5565 5565 5564 5564 5563 5560 5558 5557 5555 5554 5552 5551 5549 5548 5546 5544 5542 5541 5540 5538 5536 5534 5533 5531 5529 5527 5525 5523 5519 5516 5513 5511 5509 5507 5505 5504 5502 5500 5498 5496 5494 5492 5490 5487 5484 5481 5478 5475 5473 5470 5467 5465 5463
5561 5559 5559 5563 5564 5562 5560 5557 5555 5561 5575 5578 5569 5565 5568 5564 5557 5557 5559 5559 5560 5563 5563 5561 5561 5562 5561 5561 5563 5561 5559 5558 5557 5555 5554 5554 5554 5553 5551 5549 5548 5546 5544 5543 5541 5540 5539 5537 5535 5534 5533 5531 5529 5527 5525 5524 5522 5519 5518 5516 5512 5508 5506 5504 5503 5501 5499 5498 5496 5495 5493 5491 5489 5487 5484 5482 5479 5476 5473 5471 5467 5465 5463 5460 5458 5456
5553 5553 5553 5557 5558 5553 5551 5551 5551 5556 5564 5564 5558 5557 5558 5554 5549 5547 5549 5549 5550 5552 5552 5552 5552 5551 5550 5551 5552 5551 5551 5550 5547 5545 5544 5544 5544 5543 5542 5540 5539 5537 5535 5534 5532 5530 5529 5527 5526 5525 5523 5522 5521 5518 5516 5515 5512 5510 5509 5506 5502 5498 5497 5496 5494 5493 5492 5491 5489 5487 5486 5483 5481 5479 5477 5474 5471 5468 5466 5463 5460 5458 5456 5453 5451 5449
5546 5548 5548 5549 5548 5545 5544 5546 5547 5548 5550 5551 5549 5548 5545 5542 5540 5539 5539 5540 5539 5540 5542 5542 5541 5540 5541 5542 5542 5542 5542 5541 5538 5536 5535 5534 5534 5534 5533 5531 5530 5528 5526 5525 5523 5521 5520 5518 5517 5516 5514 5513 5511 5509 5507 5506 5503 5502 5500 5497 5492 5490 5490 5488 5487 5486 5484 5483 5482 5480 5478 5476 5473 5471 5469 5466 5464 5461 5459 5456 5454 5451 5449 5447 5445 5443
5539 5542 5541 5540 5539 5537 5537 5540 5541 5540 5540 5540 5538 5536 5534 5532 5531 5531 5531 5530 5530 5530 5532 5533 5532 5533 5533 5533 5534 5533 5532 5530 5529 5528 5526 5525 5525 5525 5524 5522 5521 5519 5517 5516 5514 5512 5511 5510 5508 5507 5505 5504 5501 5500 5498 5496 5494 5493 5491 5487 5484 5483 5482 5480 5479 5478 5477 5476 5474 5472 5470 5468 5466 5464 5462 5459 5457 5454 5452 5450 5447 5445 5443 5440 5438 5436
5533 5534 5532 5530 5531 5529 5528 5533 5535 5532 5530 5530 5527 5525 5525 5523 5522 5523 5523 5522 5522 5523 5523 5524 5525 5526 5525 5525 5525 5524 5522 5521 5520 5519 5518 5517 5516 5516 5515 5514 5512 5510 5509 5507 5505 5503 5502 5501 5499 5497 5496 5494 5492 5490 5488 5487 5486 5484 5482 5479 5477 5475 5474 5473 5472 5471 5469 5468 5466 5464 5462 5460 5458 5456 5454 5452 5449 5447 5445 5443 5441 5438 5436 5434 5431 5429
5526 5526 5523 5521 5523 5522 5520 5524 5526 5523 5521 5521 5517 5515 5514 5513 5512 5513 5513 5513 5515 5516 5516 5516 5517 5517 5517 5517 5515 5514 5514 5513 5511 5510 5509 5509 5508 5507 5506 5505 5503 5502 5500 5498 5496 5494 5493 5492 5491 5488 5487 5485 5483 5480 5479 5478 5477 5476 5473 5472 5469 5467 5466 5466 5464 5463 5461 5460 5458 5456 5454 5452 5450 5449 5447 5444 5442 5440 5438 5436 5434 5431 5429 5427 5425 5423
5518 5518 5516 5514 5514 5513 5513 5516 5516 5513 5511 5510 5507 5504 5502 5501 5502 5503 5503 5505 5508 5508 5508 5507 5507 5508 5509 5508 5506 5506 5506 5505 5503 5501 5500 5500 5500 5498 5496 5495 5494 5493 5491 5489 5487 5486 5485 5484 5482 5481 5479 5478 5474 5471 5470 5469 5468 5466 5465 5464 5462 5460 5459 5458 5456 5454 5453 5452 5450 5448 5446 5444 5443 5441 5439 5437 5434 5432 5430 5428 5426 5424 5422 5420 5418 5416
5511 5511 5510 5506 5504 5504 5506 5507 5505 5502 5499 5498 5498 5495 5492 5492 5494 5494 5495 5497 5499 5499 5499 5498 5498 5499 5500 5500 5498 5498 5498 5497 5495 5492 5491 5491 5491 5489 5487 5486 5485 5484 5483 5480 5478 5477 5477 5475 5474 5473 5472 5471 5467 5464 5463 5462 5460 5458 5457 5456 5455 5454 5452 5450 5448 5446 5445 5444 5442 5440 5438 5436 5434 5433 5431 5429 5427 5425 5423 5421 5418 5417 5415 5413 5411 5408
5505 5503 5500 5496 5495 5496 5496 5497 5496 5492 5489 5489 5488 5486 5485 5485 5486 5485 5486 5489 5490 5489 5488 5488 5489 5490 5491 5491 5490 5489 5489 5488 5486 5484 5484 5484 5482 5481 5479 5477 5476 5476 5474 5471 5470 5469 5468 5466 5465 5464 5464 5463 5460 5457 5457 5456 5453 5451 5450 5448 5447 5446 5444 5442 5441 5439 5438 5436 5434 5432 5430 5428 5426 5425 5423 5421 5419 5417 5415 5413 5411 5409 5407 5405 5403 5401